Location: Unspecified
(0.0000°N, 0.0000°E)
Time: 02:37:37
(UTC+00:00)

N. Korean satellite - Pass Details

Date: 23 September 2017
Orbit: 461 x 516 km, 97.2° (Epoch: 24 September)

Event Time Altitude Azimuth Distance (km) Brightness Sun altitude
Rises 18:49:20 0° 182° (S) 2,623 10.3 -14.3°
Reaches altitude 10° 18:51:31 10° 190° (S) 1,738 9.5 -14.8°
Maximum altitude 18:55:01 38° 259° (W) 801 8.3 -15.7°
Drops below altitude 10° 18:58:31 10° 328° (NNW) 1,733 9.8 -16.6°
Sets 19:00:42 0° 336° (NNW) 2,614 10.6 -17.1°
